Regional Weather Roundup
Issued by NWS

Home | Current Version | Previous Version | Graphics & Text | Print | Product List | Glossary On
Versions: 1 2 3 4 5 6 7 8 9 10 11 12 13 14 15 16 17 18 19 20 21 22 23 24 25 26 27 28 29 30 31 32 33 34 35 36 37 38 39 40 41 42 43 44 45 46 47 48 49 50
000
ASUS43 KOAX 222202
RWRNE

WEATHER ROUNDUP FOR NEBRASKA
NATIONAL WEATHER SERVICE OMAHA NE
500 PM CDT FRI AUG 22 2014

NOTES: SATELLITE DATA IS BEING USED TO AUGMENT CLOUD COVER ABOVE
       12000 FEET.
       "FAIR" INDICATES FEW OR NO CLOUDS BELOW 12,000 FEET WITH NO
       SIGNIFICANT WEATHER AND/OR OBSTRUCTIONS TO VISIBILITY.

  * THESE STATIONS DO NOT REPORT WEATHER SUCH AS RAIN...SNOW OR FOG.

NEZ001>004-019>022-054>056-222300-
NEBRASKA PANHANDLE

CITY           SKY/WX    TMP DP  RH WIND       PRES   REMARKS
SCOTTSBLUFF    LGT RAIN  73  62  68 E17       30.03F
ALLIANCE       CLOUDY    71  57  61 SE18      30.06S
CHADRON        CLOUDY    74  58  57 E9        30.02F
KIMBALL        CLOUDY    69  56  64 SE12      30.08S
SIDNEY         CLOUDY    66  62  87 W5        30.09S
$$

NEZ057>060-069>072-079>082-222300-
SOUTHWEST NEBRASKA

CITY           SKY/WX    TMP DP  RH WIND       PRES   REMARKS
NORTH PLATTE   CLOUDY    85  63  47 NE9       29.99F
IMPERIAL       CLOUDY    82  56  40 N8        30.02S
LEXINGTON      MOSUNNY   87  70  56 E13G20    29.96S HX  92
MCCOOK         MOSUNNY   87  64  46 E13       29.95F
OGALLALA       CLOUDY    75  60  60 N14       30.04F
$$

NEZ005>010-023>029-035>040-094-222300-
NORTH CENTRAL NEBRASKA

CITY           SKY/WX    TMP DP  RH WIND       PRES   REMARKS
VALENTINE      CLOUDY    81  60  48 S3        30.02R
AINSWORTH      CLOUDY    76  66  69 CALM      30.02S
BROKEN BOW     PTSUNNY   85  69  58 NE12      29.97F
O`NEILL        CLOUDY    82  70  67 E9        29.99F
ORD            MOSUNNY   87  69  54 NE10G20   29.94F HX  91
THEDFORD       PTSUNNY   77  63  60 NW9       30.04F
$$

NEZ041-046>049-061>064-073>077-083>087-222300-
SOUTH CENTRAL NEBRASKA

CITY           SKY/WX    TMP DP  RH WIND       PRES   REMARKS
GRAND ISLAND   MOSUNNY   88  74  63 E14       29.93F HX  96
AURORA         PTSUNNY   85  77  75 E6        29.93F HX  96
HASTINGS       PTSUNNY   85  72  65 NE14      29.93S HX  91
HEBRON         MOSUNNY   88  69  53 N5        29.91S HX  91
HOLDREGE       MOSUNNY   86  71  62 E12       29.95R HX  91
KEARNEY *      MOSUNNY   84  73  70 NE13      29.94F HX  91
YORK           PTSUNNY   84 N/A N/A E3        29.93S
$$

NEZ011>018-030>034-042>045-222300-
NORTHEAST NEBRASKA

CITY           SKY/WX    TMP DP  RH WIND       PRES   REMARKS
NORFOLK        MOSUNNY   88  71  57 NE7       29.93F HX  94
ALBION         MOSUNNY   87  69  55 NE8       29.95F HX  91
BLAIR          CLOUDY    80  67  63 SE16G30   29.89F THUNDER
FREMONT        PTSUNNY   89  74  61 NE7       29.91S HX  99
TEKAMAH        PTSUNNY   88  78  72 NE7       29.91S HX 101
WAYNE          MOSUNNY   88  74  65 N7        29.95R HX  96
$$

NEZ050>053-065>068-078-088>093-222300-
SOUTHEAST NEBRASKA

CITY           SKY/WX    TMP DP  RH WIND       PRES   REMARKS
LINCOLN        PTSUNNY   90  73  57 SE10      29.90S HX  98
OMAHA EPPLEY   TSTM      78  74  87 W6        29.91R
BEATRICE       CLOUDY    84  72  65 E7        29.90F
FALLS CITY     TSTM      79  75  87 SE3       29.88F
NEBRASKA CITY  CLOUDY    79  74  85 SE5       29.92F
PLATTSMOUTH    CLOUDY    83  74  74 SE8       29.92R THUNDER
$$

NEZ044-045-051>053-067-222300-
OMAHA AREA

CITY           SKY/WX    TMP DP  RH WIND       PRES   REMARKS
OMAHA EPPLEY   TSTM      78  74  87 W6        29.91R
BLAIR          CLOUDY    80  67  63 SE16G30   29.89F THUNDER
FREMONT        PTSUNNY   89  74  61 NE7       29.91S HX  99
MILLARD        CLOUDY    80  72  76 NE5       29.91R THUNDER
OFFUTT AFB     TSTM      82  81  94 SE10      29.91S HX  95
PLATTSMOUTH    CLOUDY    83  74  74 SE8       29.92R THUNDER
WAHOO          HVY RAIN  84  75  74 E9        29.91R HX  91
$$



USA.gov is the U.S. government's official web portal to all federal, state and local government web resources and services.